Time,TemperatureF,DewpointF,PressureIn,WindDirection,WindDirectionDegrees,WindSpeedMPH,WindSpeedGustMPH,Humidity,HourlyPrecipIn,Conditions,Clouds,dailyrainin,SoftwareType,DateUTC
2013-09-10 00:01:00,72.1,68.0,30.16,SSW,198,0.0,3.0,87,0.00,,,0.00,meteohub,2013-09-10 04:01:00,
2013-09-10 00:06:00,72.1,68.0,30.16,SSW,201,0.0,3.0,87,0.00,,,0.00,meteohub,2013-09-10 04:06:00,
2013-09-10 00:12:00,72.1,68.0,30.16,ESE,109,1.0,5.0,87,0.00,,,0.00,meteohub,2013-09-10 04:12:00,
2013-09-10 00:17:00,72.1,68.0,30.16,SW,223,1.0,5.0,87,0.00,,,0.00,meteohub,2013-09-10 04:17:00,
2013-09-10 00:22:00,72.1,68.0,30.16,WNW,286,1.0,5.0,87,0.00,,,0.00,meteohub,2013-09-10 04:22:00,
2013-09-10 00:27:00,72.1,68.0,30.16,ESE,116,1.0,3.0,87,0.00,,,0.00,meteohub,2013-09-10 04:27:00,
2013-09-10 00:32:00,72.1,68.0,30.15,West,267,0.0,3.0,87,0.00,,,0.00,meteohub,2013-09-10 04:32:00,
2013-09-10 00:37:00,72.1,68.0,30.16,West,267,0.0,3.0,87,0.00,,,0.00,meteohub,2013-09-10 04:37:00,
2013-09-10 00:42:00,72.1,68.0,30.16,ENE,75,0.0,3.0,87,0.00,,,0.00,meteohub,2013-09-10 04:42:00,
2013-09-10 00:47:00,72.1,68.0,30.16,ENE,75,0.0,2.0,87,0.00,,,0.00,meteohub,2013-09-10 04:47:00,
2013-09-10 00:52:00,72.1,68.0,30.16,SSE,153,0.0,2.0,87,0.00,,,0.00,meteohub,2013-09-10 04:52:00,
2013-09-10 00:57:00,72.1,68.0,30.16,North,0,0.0,2.0,87,0.00,,,0.00,meteohub,2013-09-10 04:57:00,
2013-09-10 01:02:00,72.1,68.0,30.15,NNE,12,0.0,2.0,87,0.00,,,0.00,meteohub,2013-09-10 05:02:00,
2013-09-10 01:07:00,72.1,68.0,30.15,WSW,258,0.0,2.0,87,0.00,,,0.00,meteohub,2013-09-10 05:07:00,
2013-09-10 01:12:00,72.1,68.0,30.15,SSW,207,1.0,2.0,87,0.00,,,0.00,meteohub,2013-09-10 05:12:00,
2013-09-10 01:17:00,72.1,68.0,30.15,SSW,213,0.0,2.0,87,0.00,,,0.00,meteohub,2013-09-10 05:17:00,
2013-09-10 01:21:00,72.1,68.4,30.15,SSW,213,0.0,3.0,88,0.00,,,0.00,meteohub,2013-09-10 05:21:00,
2013-09-10 01:26:00,72.1,68.4,30.15,SW,235,0.0,3.0,88,0.00,,,0.00,meteohub,2013-09-10 05:26:00,
2013-09-10 01:31:00,72.1,68.4,30.15,SE,131,0.0,3.0,88,0.00,,,0.00,meteohub,2013-09-10 05:31:00,
2013-09-10 01:37:00,72.1,68.4,30.15,SW,221,1.0,3.0,88,0.00,,,0.00,meteohub,2013-09-10 05:37:00,
2013-09-10 01:42:00,72.1,68.4,30.15,SW,214,3.0,3.0,88,0.00,,,0.00,meteohub,2013-09-10 05:42:00,
2013-09-10 01:47:00,72.1,68.4,30.15,SSW,195,0.0,5.0,88,0.00,,,0.00,meteohub,2013-09-10 05:47:00,
2013-09-10 01:52:00,72.1,68.7,30.15,South,179,1.0,5.0,89,0.00,,,0.00,meteohub,2013-09-10 05:52:00,
2013-09-10 01:57:00,72.1,68.4,30.15,SW,217,2.0,5.0,88,0.00,,,0.00,meteohub,2013-09-10 05:57:00,
2013-09-10 02:02:00,72.1,68.7,30.15,SW,215,0.0,5.0,89,0.00,,,0.00,meteohub,2013-09-10 06:02:00,
2013-09-10 02:07:00,72.1,68.7,30.15,SSW,201,0.0,3.0,89,0.00,,,0.00,meteohub,2013-09-10 06:07:00,
2013-09-10 02:12:00,72.1,68.7,30.15,East,99,2.0,3.0,89,0.00,,,0.00,meteohub,2013-09-10 06:12:00,
2013-09-10 02:17:00,72.1,68.7,30.15,NE,42,0.0,4.0,89,0.00,,,0.00,meteohub,2013-09-10 06:17:00,
2013-09-10 02:22:00,72.1,68.7,30.15,NNW,331,3.0,4.0,89,0.00,,,0.00,meteohub,2013-09-10 06:22:00,
2013-09-10 02:27:00,72.1,68.7,30.15,SSW,198,0.0,4.0,89,0.00,,,0.00,meteohub,2013-09-10 06:27:00,
2013-09-10 02:32:00,72.1,68.7,30.15,WNW,284,0.0,4.0,89,0.00,,,0.00,meteohub,2013-09-10 06:32:00,
2013-09-10 02:37:00,72.1,68.7,30.15,ENE,59,0.0,6.0,89,0.00,,,0.00,meteohub,2013-09-10 06:37:00,
2013-09-10 02:42:00,72.0,68.5,30.15,SSW,201,1.0,6.0,89,0.00,,,0.00,meteohub,2013-09-10 06:42:00,
2013-09-10 02:47:00,72.0,68.5,30.15,ENE,65,0.0,6.0,89,0.00,,,0.00,meteohub,2013-09-10 06:47:00,
2013-09-10 02:52:00,72.0,68.9,30.16,SW,216,0.0,4.0,90,0.00,,,0.00,meteohub,2013-09-10 06:52:00,
2013-09-10 02:57:00,72.0,68.9,30.15,SW,228,1.0,4.0,90,0.00,,,0.00,meteohub,2013-09-10 06:57:00,
2013-09-10 03:02:00,72.0,68.9,30.15,SSW,195,2.0,4.0,90,0.00,,,0.00,meteohub,2013-09-10 07:02:00,
2013-09-10 03:07:00,72.0,68.9,30.15,NW,309,0.0,4.0,90,0.00,,,0.00,meteohub,2013-09-10 07:07:00,
2013-09-10 03:12:00,72.0,68.9,30.14,WSW,244,0.0,4.0,90,0.00,,,0.00,meteohub,2013-09-10 07:12:00,
2013-09-10 03:17:00,72.0,68.9,30.15,WNW,294,2.0,3.0,90,0.00,,,0.00,meteohub,2013-09-10 07:17:00,
2013-09-10 03:22:00,72.0,68.9,30.15,WNW,297,1.0,3.0,90,0.00,,,0.00,meteohub,2013-09-10 07:22:00,
2013-09-10 03:27:00,72.0,68.9,30.15,South,190,0.0,3.0,90,0.00,,,0.00,meteohub,2013-09-10 07:27:00,
2013-09-10 03:32:00,72.0,68.9,30.14,West,265,0.0,3.0,90,0.00,,,0.00,meteohub,2013-09-10 07:32:00,
2013-09-10 03:37:00,72.0,68.9,30.14,West,281,0.0,3.0,90,0.00,,,0.00,meteohub,2013-09-10 07:37:00,
2013-09-10 03:42:00,72.0,68.9,30.14,SSE,147,2.0,2.0,90,0.00,,,0.00,meteohub,2013-09-10 07:42:00,
2013-09-10 03:47:00,72.0,69.3,30.14,WSW,250,0.0,6.0,91,0.00,,,0.00,meteohub,2013-09-10 07:47:00,
2013-09-10 03:52:00,72.0,69.3,30.15,SSW,204,0.0,6.0,91,0.00,,,0.00,meteohub,2013-09-10 07:52:00,
2013-09-10 03:57:00,72.0,69.3,30.15,West,268,0.0,6.0,91,0.00,,,0.00,meteohub,2013-09-10 07:57:00,
2013-09-10 04:02:00,72.0,69.3,30.15,WNW,288,0.0,3.0,91,0.00,,,0.00,meteohub,2013-09-10 08:02:00,
2013-09-10 04:07:00,72.0,69.3,30.14,WNW,288,0.0,2.0,91,0.00,,,0.00,meteohub,2013-09-10 08:07:00,
2013-09-10 04:12:00,72.0,69.3,30.14,South,190,0.0,2.0,91,0.00,,,0.00,meteohub,2013-09-10 08:12:00,
2013-09-10 04:17:00,72.0,69.3,30.14,SW,223,1.0,3.0,91,0.00,,,0.00,meteohub,2013-09-10 08:17:00,
2013-09-10 04:22:00,72.0,69.3,30.14,SSW,205,0.0,3.0,91,0.00,,,0.00,meteohub,2013-09-10 08:22:00,
2013-09-10 04:27:00,72.0,69.3,30.14,SW,230,0.0,3.0,91,0.00,,,0.00,meteohub,2013-09-10 08:27:00,
2013-09-10 04:32:00,72.0,69.3,30.14,WNW,300,0.0,3.0,91,0.00,,,0.00,meteohub,2013-09-10 08:32:00,
2013-09-10 04:37:00,71.8,69.1,30.14,NW,323,0.0,3.0,91,0.00,,,0.00,meteohub,2013-09-10 08:37:00,
2013-09-10 04:42:00,71.8,69.1,30.14,WNW,299,0.0,3.0,91,0.00,,,0.00,meteohub,2013-09-10 08:42:00,
2013-09-10 04:47:00,71.8,69.1,30.14,SW,215,2.0,3.0,91,0.00,,,0.00,meteohub,2013-09-10 08:47:00,
2013-09-10 04:52:00,71.8,69.1,30.14,WNW,294,0.0,3.0,91,0.00,,,0.00,meteohub,2013-09-10 08:52:00,
2013-09-10 04:57:00,71.8,69.1,30.14,SSW,211,2.0,3.0,91,0.00,,,0.00,meteohub,2013-09-10 08:57:00,
2013-09-10 05:02:00,71.8,69.1,30.14,SW,219,0.0,3.0,91,0.00,,,0.00,meteohub,2013-09-10 09:02:00,
2013-09-10 05:07:00,71.8,69.3,30.14,NW,316,0.0,3.0,92,0.00,,,0.00,meteohub,2013-09-10 09:07:00,
2013-09-10 05:12:00,71.8,69.3,30.14,SE,146,1.0,5.0,92,0.00,,,0.00,meteohub,2013-09-10 09:12:00,
2013-09-10 05:17:00,71.8,69.3,30.14,West,270,0.0,5.0,92,0.00,,,0.00,meteohub,2013-09-10 09:17:00,
2013-09-10 05:22:00,71.8,69.1,30.14,NNW,342,0.0,5.0,91,0.00,,,0.00,meteohub,2013-09-10 09:22:00,
2013-09-10 05:27:00,72.0,69.3,30.14,SSW,205,2.0,5.0,91,0.00,,,0.00,meteohub,2013-09-10 09:27:00,
2013-09-10 05:32:00,72.0,69.3,30.15,North,355,0.0,6.0,91,0.00,,,0.00,meteohub,2013-09-10 09:32:00,
2013-09-10 05:37:00,72.0,69.3,30.15,SSW,204,1.0,6.0,91,0.00,,,0.00,meteohub,2013-09-10 09:37:00,
2013-09-10 05:42:00,72.0,69.3,30.15,NNW,348,0.0,6.0,91,0.00,,,0.00,meteohub,2013-09-10 09:42:00,
2013-09-10 05:47:00,72.0,69.3,30.15,SSE,157,0.0,4.0,91,0.00,,,0.00,meteohub,2013-09-10 09:47:00,
2013-09-10 05:52:00,72.0,69.3,30.15,NW,306,0.0,5.0,91,0.00,,,0.00,meteohub,2013-09-10 09:52:00,
2013-09-10 05:57:00,72.0,69.3,30.15,NNW,329,0.0,5.0,91,0.00,,,0.00,meteohub,2013-09-10 09:57:00,
2013-09-10 06:02:00,72.0,69.3,30.15,NNW,329,0.0,5.0,91,0.00,,,0.00,meteohub,2013-09-10 10:02:00,
2013-09-10 06:07:00,72.0,69.3,30.15,WSW,243,0.0,3.0,91,0.00,,,0.00,meteohub,2013-09-10 10:07:00,
2013-09-10 06:12:00,72.0,69.3,30.15,SW,223,0.0,3.0,91,0.00,,,0.00,meteohub,2013-09-10 10:12:00,
2013-09-10 06:17:00,71.8,69.1,30.16,WNW,286,0.0,3.0,91,0.00,,,0.00,meteohub,2013-09-10 10:17:00,
2013-09-10 06:22:00,71.8,69.1,30.16,WNW,287,0.0,3.0,91,0.00,,,0.00,meteohub,2013-09-10 10:22:00,
2013-09-10 06:27:00,71.8,69.1,30.16,WSW,243,0.0,3.0,91,0.00,,,0.00,meteohub,2013-09-10 10:27:00,
2013-09-10 06:32:00,71.8,69.1,30.16,SW,215,0.0,3.0,91,0.00,,,0.00,meteohub,2013-09-10 10:32:00,
2013-09-10 06:37:00,71.8,69.1,30.16,NW,322,1.0,3.0,91,0.00,,,0.00,meteohub,2013-09-10 10:37:00,
2013-09-10 06:42:00,71.8,69.1,30.17,NW,321,0.0,2.0,91,0.00,,,0.00,meteohub,2013-09-10 10:42:00,
2013-09-10 06:47:00,71.8,69.1,30.17,NW,321,0.0,2.0,91,0.00,,,0.00,meteohub,2013-09-10 10:47:00,
2013-09-10 06:52:00,71.8,69.1,30.17,NW,321,0.0,1.0,91,0.00,,,0.00,meteohub,2013-09-10 10:52:00,
2013-09-10 06:57:00,71.8,69.3,30.17,NW,321,0.0,1.0,92,0.00,,,0.00,meteohub,2013-09-10 10:57:00,
2013-09-10 07:02:00,71.6,69.1,30.17,NW,321,0.0,2.0,92,0.00,,,0.00,meteohub,2013-09-10 11:02:00,
2013-09-10 07:07:00,71.6,69.1,30.17,NW,321,0.0,2.0,92,0.00,,,0.00,meteohub,2013-09-10 11:07:00,
2013-09-10 07:12:00,71.6,69.1,30.17,NW,321,0.0,2.0,92,0.00,,,0.00,meteohub,2013-09-10 11:12:00,
2013-09-10 07:17:00,71.6,69.1,30.17,SSW,199,0.0,1.0,92,0.00,,,0.00,meteohub,2013-09-10 11:17:00,
2013-09-10 07:22:00,71.6,69.1,30.17,SSW,196,0.0,3.0,92,0.00,,,0.00,meteohub,2013-09-10 11:22:00,
2013-09-10 07:27:00,71.4,68.9,30.17,SSW,196,0.0,3.0,92,0.00,,,0.00,meteohub,2013-09-10 11:27:00,
2013-09-10 07:32:00,71.4,68.9,30.17,SSW,195,0.0,3.0,92,0.00,,,0.00,meteohub,2013-09-10 11:32:00,
2013-09-10 07:37:00,71.4,68.9,30.17,SSW,196,0.0,1.0,92,0.00,,,0.00,meteohub,2013-09-10 11:37:00,
2013-09-10 07:42:00,71.6,69.1,30.17,SSW,196,0.0,1.0,92,0.00,,,0.00,meteohub,2013-09-10 11:42:00,
2013-09-10 07:47:00,71.6,69.1,30.17,SSW,196,0.0,1.0,92,0.00,,,0.00,meteohub,2013-09-10 11:47:00,
2013-09-10 07:52:00,71.6,69.4,30.17,SSW,195,0.0,1.0,93,0.00,,,0.00,meteohub,2013-09-10 11:52:00,
2013-09-10 07:57:00,71.8,69.6,30.17,South,188,2.0,2.0,93,0.00,,,0.00,meteohub,2013-09-10 11:57:00,
2013-09-10 08:02:00,72.0,69.4,30.17,South,189,0.0,3.0,92,0.00,,,0.00,meteohub,2013-09-10 12:02:00,
2013-09-10 08:07:00,72.1,69.6,30.17,South,173,0.0,4.0,92,0.00,,,0.00,meteohub,2013-09-10 12:07:00,
2013-09-10 08:12:00,72.3,69.8,30.17,SSW,207,0.0,4.0,92,0.00,,,0.00,meteohub,2013-09-10 12:12:00,
2013-09-10 08:17:00,72.5,70.0,30.17,SW,219,3.0,3.0,92,0.00,,,0.00,meteohub,2013-09-10 12:17:00,
2013-09-10 08:22:00,72.7,70.0,30.17,South,174,1.0,3.0,91,0.00,,,0.00,meteohub,2013-09-10 12:22:00,
2013-09-10 08:27:00,72.9,70.2,30.17,NNW,327,3.0,3.0,91,0.00,,,0.00,meteohub,2013-09-10 12:27:00,
2013-09-10 08:32:00,73.0,70.3,30.17,North,355,0.0,3.0,91,0.00,,,0.00,meteohub,2013-09-10 12:32:00,
2013-09-10 08:37:00,73.2,70.5,30.17,North,355,0.0,3.0,91,0.00,,,0.00,meteohub,2013-09-10 12:37:00,
2013-09-10 08:42:00,73.2,70.2,30.17,North,355,0.0,3.0,90,0.00,,,0.00,meteohub,2013-09-10 12:42:00,
2013-09-10 08:47:00,73.6,70.5,30.17,WSW,238,0.0,1.0,90,0.00,,,0.00,meteohub,2013-09-10 12:47:00,
2013-09-10 08:52:00,73.9,70.9,30.17,WSW,238,0.0,3.0,90,0.00,,,0.00,meteohub,2013-09-10 12:52:00,
2013-09-10 08:57:00,74.1,71.1,30.17,NNW,330,0.0,3.0,90,0.00,,,0.00,meteohub,2013-09-10 12:57:00,
2013-09-10 09:02:00,74.5,71.1,30.17,SSW,201,1.0,3.0,89,0.00,,,0.00,meteohub,2013-09-10 13:02:00,
2013-09-10 09:07:00,74.8,71.4,30.17,South,186,0.0,3.0,89,0.00,,,0.00,meteohub,2013-09-10 13:07:00,
2013-09-10 09:12:00,75.6,71.4,30.17,SE,146,0.0,3.0,87,0.00,,,0.00,meteohub,2013-09-10 13:12:00,
2013-09-10 09:17:00,75.9,71.8,30.18,North,0,1.0,3.0,87,0.00,,,0.00,meteohub,2013-09-10 13:17:00,
2013-09-10 09:22:00,76.3,71.4,30.17,SSW,195,0.0,3.0,85,0.00,,,0.00,meteohub,2013-09-10 13:22:00,
2013-09-10 09:27:00,76.6,72.1,30.18,WNW,299,4.0,4.0,86,0.00,,,0.00,meteohub,2013-09-10 13:27:00,
2013-09-10 09:32:00,76.8,71.6,30.18,WNW,294,0.0,4.0,84,0.00,,,0.00,meteohub,2013-09-10 13:32:00,
2013-09-10 09:37:00,77.2,72.0,30.18,West,267,0.0,4.0,84,0.00,,,0.00,meteohub,2013-09-10 13:37:00,
2013-09-10 09:42:00,77.5,71.6,30.18,WSW,251,2.0,4.0,82,0.00,,,0.00,meteohub,2013-09-10 13:42:00,
2013-09-10 09:47:00,78.1,72.5,30.18,South,174,1.0,3.0,83,0.00,,,0.00,meteohub,2013-09-10 13:47:00,
2013-09-10 09:52:00,78.6,72.7,30.18,SSE,164,0.0,3.0,82,0.00,,,0.00,meteohub,2013-09-10 13:52:00,
2013-09-10 09:57:00,79.3,73.0,30.18,SSE,164,0.0,3.0,81,0.00,,,0.00,meteohub,2013-09-10 13:57:00,
2013-09-10 10:02:00,80.1,73.0,30.18,ESE,108,0.0,3.0,79,0.00,,,0.00,meteohub,2013-09-10 14:02:00,
2013-09-10 10:07:00,80.8,72.9,30.19,ESE,118,1.0,3.0,77,0.00,,,0.00,meteohub,2013-09-10 14:07:00,
2013-09-10 10:12:00,81.3,73.0,30.19,South,173,1.0,3.0,76,0.00,,,0.00,meteohub,2013-09-10 14:12:00,
2013-09-10 10:17:00,81.9,73.6,30.19,SSW,198,3.0,3.0,76,0.00,,,0.00,meteohub,2013-09-10 14:17:00,
2013-09-10 10:22:00,82.0,73.4,30.19,South,177,1.0,3.0,75,0.00,,,0.00,meteohub,2013-09-10 14:22:00,
2013-09-10 10:27:00,82.6,73.4,30.19,WSW,238,0.0,4.0,74,0.00,,,0.00,meteohub,2013-09-10 14:27:00,
2013-09-10 10:32:00,82.9,73.4,30.19,SE,126,0.0,4.0,73,0.00,,,0.00,meteohub,2013-09-10 14:32:00,
2013-09-10 10:37:00,83.7,74.1,30.19,NNW,348,1.0,3.0,73,0.00,,,0.00,meteohub,2013-09-10 14:37:00,
2013-09-10 10:42:00,84.4,74.8,30.19,NNW,346,0.0,2.0,73,0.00,,,0.00,meteohub,2013-09-10 14:42:00,
2013-09-10 10:47:00,84.7,73.0,30.19,SE,137,1.0,2.0,68,0.00,,,0.00,meteohub,2013-09-10 14:47:00,
2013-09-10 10:52:00,84.6,72.9,30.18,NW,315,0.0,3.0,68,0.00,,,0.00,meteohub,2013-09-10 14:52:00,
2013-09-10 10:57:00,84.6,73.8,30.18,South,184,1.0,4.0,70,0.00,,,0.00,meteohub,2013-09-10 14:57:00,
2013-09-10 11:02:00,84.6,73.2,30.18,SE,138,0.0,4.0,69,0.00,,,0.00,meteohub,2013-09-10 15:02:00,
2013-09-10 11:07:00,84.7,73.9,30.18,South,169,1.0,4.0,70,0.00,,,0.00,meteohub,2013-09-10 15:07:00,
2013-09-10 11:12:00,85.3,73.0,30.18,SSE,163,0.0,4.0,67,0.00,,,0.00,meteohub,2013-09-10 15:12:00,
2013-09-10 11:17:00,85.5,72.9,30.18,South,173,0.0,4.0,66,0.00,,,0.00,meteohub,2013-09-10 15:17:00,
2013-09-10 11:22:00,85.5,74.5,30.18,South,173,0.0,4.0,70,0.00,,,0.00,meteohub,2013-09-10 15:22:00,
2013-09-10 11:27:00,86.0,74.7,30.18,SE,129,0.0,4.0,69,0.00,,,0.00,meteohub,2013-09-10 15:27:00,
2013-09-10 11:32:00,86.2,73.0,30.17,NE,34,0.0,2.0,65,0.00,,,0.00,meteohub,2013-09-10 15:32:00,
2013-09-10 11:37:00,85.8,73.2,30.17,NNW,331,0.0,2.0,66,0.00,,,0.00,meteohub,2013-09-10 15:37:00,
2013-09-10 11:42:00,85.8,73.9,30.17,WSW,240,0.0,4.0,68,0.00,,,0.00,meteohub,2013-09-10 15:42:00,
2013-09-10 11:47:00,86.4,75.4,30.17,SW,218,1.0,4.0,70,0.00,,,0.00,meteohub,2013-09-10 15:47:00,
2013-09-10 11:52:00,86.2,73.4,30.17,North,355,1.0,4.0,66,0.00,,,0.00,meteohub,2013-09-10 15:52:00,
2013-09-10 11:57:00,86.0,73.8,30.16,NW,319,0.0,4.0,67,0.00,,,0.00,meteohub,2013-09-10 15:57:00,
2013-09-10 12:02:00,86.0,74.1,30.16,NE,40,0.0,4.0,68,0.00,,,0.00,meteohub,2013-09-10 16:02:00,
2013-09-10 12:07:00,86.0,72.9,30.16,West,265,0.0,3.0,65,0.00,,,0.00,meteohub,2013-09-10 16:07:00,
2013-09-10 12:12:00,86.0,72.9,30.16,WNW,288,1.0,4.0,65,0.00,,,0.00,meteohub,2013-09-10 16:12:00,
2013-09-10 12:17:00,86.4,73.6,30.16,WNW,302,0.0,4.0,66,0.00,,,0.00,meteohub,2013-09-10 16:17:00,
2013-09-10 12:22:00,87.1,73.9,30.15,ESE,118,1.0,4.0,65,0.00,,,0.00,meteohub,2013-09-10 16:22:00,
2013-09-10 12:27:00,87.3,73.0,30.15,SSE,159,0.0,4.0,63,0.00,,,0.00,meteohub,2013-09-10 16:27:00,
2013-09-10 12:32:00,87.6,74.3,30.15,North,5,0.0,5.0,65,0.00,,,0.00,meteohub,2013-09-10 16:32:00,
2013-09-10 12:37:00,88.2,73.9,30.15,SE,136,4.0,5.0,63,0.00,,,0.00,meteohub,2013-09-10 16:37:00,
2013-09-10 12:42:00,88.5,75.2,30.15,South,169,3.0,5.0,65,0.00,,,0.00,meteohub,2013-09-10 16:42:00,
2013-09-10 12:47:00,89.1,73.9,30.15,SSE,163,0.0,5.0,61,0.00,,,0.00,meteohub,2013-09-10 16:47:00,
2013-09-10 12:52:00,89.4,74.7,30.15,SE,134,0.0,5.0,62,0.00,,,0.00,meteohub,2013-09-10 16:52:00,
2013-09-10 12:58:00,90.1,74.3,30.15,ESE,109,1.0,3.0,60,0.00,,,0.00,meteohub,2013-09-10 16:58:00,
2013-09-10 13:03:00,90.1,73.4,30.15,SSW,198,2.0,4.0,58,0.00,,,0.00,meteohub,2013-09-10 17:03:00,
2013-09-10 13:08:00,90.3,74.5,30.15,South,178,0.0,4.0,60,0.00,,,0.00,meteohub,2013-09-10 17:08:00,
2013-09-10 13:13:00,90.1,72.9,30.15,NNW,329,1.0,4.0,57,0.00,,,0.00,meteohub,2013-09-10 17:13:00,
2013-09-10 13:18:00,89.2,73.6,30.14,NNW,342,0.0,4.0,60,0.00,,,0.00,meteohub,2013-09-10 17:18:00,
2013-09-10 13:23:00,88.5,72.3,30.14,WNW,288,0.0,5.0,59,0.00,,,0.00,meteohub,2013-09-10 17:23:00,
2013-09-10 13:28:00,88.5,73.4,30.14,East,101,0.0,5.0,61,0.00,,,0.00,meteohub,2013-09-10 17:28:00,
2013-09-10 13:33:00,89.1,74.3,30.14,SE,127,0.0,4.0,62,0.00,,,0.00,meteohub,2013-09-10 17:33:00,
2013-09-10 13:38:00,89.8,73.6,30.14,SE,136,2.0,4.0,59,0.00,,,0.00,meteohub,2013-09-10 17:38:00,
2013-09-10 13:43:00,90.1,73.9,30.14,ESE,123,0.0,4.0,59,0.00,,,0.00,meteohub,2013-09-10 17:43:00,
2013-09-10 13:48:00,90.1,73.9,30.14,SSW,213,0.0,4.0,59,0.00,,,0.00,meteohub,2013-09-10 17:48:00,
2013-09-10 13:53:00,90.5,74.7,30.14,NW,322,1.0,5.0,60,0.00,,,0.00,meteohub,2013-09-10 17:53:00,
2013-09-10 13:58:00,90.7,73.9,30.13,South,181,0.0,5.0,58,0.00,,,0.00,meteohub,2013-09-10 17:58:00,
2013-09-10 14:03:00,90.1,73.4,30.13,NW,314,0.0,5.0,58,0.00,,,0.00,meteohub,2013-09-10 18:03:00,
2013-09-10 14:09:00,90.1,74.3,30.13,SE,128,1.0,5.0,60,0.00,,,0.00,meteohub,2013-09-10 18:09:00,
2013-09-10 14:14:00,90.7,73.9,30.12,South,184,0.0,5.0,58,0.00,,,0.00,meteohub,2013-09-10 18:14:00,
2013-09-10 14:19:00,91.0,74.7,30.12,NW,309,1.0,5.0,59,0.00,,,0.00,meteohub,2013-09-10 18:19:00,
2013-09-10 14:24:00,91.0,74.1,30.12,SSW,207,3.0,4.0,58,0.00,,,0.00,meteohub,2013-09-10 18:24:00,
2013-09-10 14:29:00,90.9,74.1,30.12,NW,319,0.0,4.0,58,0.00,,,0.00,meteohub,2013-09-10 18:29:00,
2013-09-10 14:34:00,90.9,75.6,30.12,NNW,333,4.0,5.0,61,0.00,,,0.00,meteohub,2013-09-10 18:34:00,
2013-09-10 14:39:00,91.2,75.4,30.12,SSW,213,1.0,5.0,60,0.00,,,0.00,meteohub,2013-09-10 18:39:00,
2013-09-10 14:44:00,91.4,75.0,30.12,SSW,200,1.0,6.0,59,0.00,,,0.00,meteohub,2013-09-10 18:44:00,
2013-09-10 14:49:00,91.8,74.8,30.12,WNW,284,2.0,6.0,58,0.00,,,0.00,meteohub,2013-09-10 18:49:00,
2013-09-10 14:54:00,91.6,75.7,30.12,South,171,0.0,5.0,60,0.00,,,0.00,meteohub,2013-09-10 18:54:00,
2013-09-10 14:59:00,91.0,73.2,30.11,NW,308,1.0,4.0,56,0.00,,,0.00,meteohub,2013-09-10 18:59:00,
2013-09-10 15:04:00,90.7,74.8,30.12,NW,317,0.0,5.0,60,0.00,,,0.00,meteohub,2013-09-10 19:04:00,
2013-09-10 15:09:00,90.9,74.1,30.11,SSE,153,0.0,5.0,58,0.00,,,0.00,meteohub,2013-09-10 19:09:00,
2013-09-10 15:14:00,91.0,73.8,30.12,SSW,197,1.0,5.0,57,0.00,,,0.00,meteohub,2013-09-10 19:14:00,
2013-09-10 15:19:00,91.0,74.7,30.11,NW,314,0.0,3.0,59,0.00,,,0.00,meteohub,2013-09-10 19:19:00,
2013-09-10 15:24:00,91.2,73.4,30.11,SW,220,0.0,3.0,56,0.00,,,0.00,meteohub,2013-09-10 19:24:00,
2013-09-10 15:29:00,91.4,74.5,30.11,ENE,63,1.0,5.0,58,0.00,,,0.00,meteohub,2013-09-10 19:29:00,
2013-09-10 15:34:00,91.2,74.3,30.11,NNW,329,1.0,5.0,58,0.00,,,0.00,meteohub,2013-09-10 19:34:00,
2013-09-10 15:39:00,91.0,74.1,30.11,SE,136,1.0,5.0,58,0.00,,,0.00,meteohub,2013-09-10 19:39:00,
2013-09-10 15:44:00,91.0,75.2,30.11,West,273,1.0,5.0,60,0.00,,,0.00,meteohub,2013-09-10 19:44:00,
2013-09-10 15:49:00,91.2,74.3,30.10,South,191,1.0,4.0,58,0.00,,,0.00,meteohub,2013-09-10 19:49:00,
2013-09-10 15:54:00,91.4,75.0,30.11,South,175,0.0,4.0,59,0.00,,,0.00,meteohub,2013-09-10 19:54:00,
2013-09-10 15:59:00,91.6,74.7,30.10,NNW,333,3.0,4.0,58,0.00,,,0.00,meteohub,2013-09-10 19:59:00,
2013-09-10 16:04:00,91.2,74.8,30.10,NNW,329,3.0,4.0,59,0.00,,,0.00,meteohub,2013-09-10 20:04:00,
2013-09-10 16:09:00,90.9,74.1,30.10,South,172,1.0,5.0,58,0.00,,,0.00,meteohub,2013-09-10 20:09:00,
2013-09-10 16:14:00,90.7,74.8,30.10,South,175,1.0,5.0,60,0.00,,,0.00,meteohub,2013-09-10 20:14:00,
2013-09-10 16:19:00,90.3,74.5,30.10,SSW,213,0.0,5.0,60,0.00,,,0.00,meteohub,2013-09-10 20:19:00,
2013-09-10 16:24:00,90.3,74.1,30.09,West,277,0.0,3.0,59,0.00,,,0.00,meteohub,2013-09-10 20:24:00,
2013-09-10 16:29:00,90.1,73.9,30.09,NNW,333,0.0,3.0,59,0.00,,,0.00,meteohub,2013-09-10 20:29:00,
2013-09-10 16:34:00,89.8,73.0,30.09,West,266,1.0,4.0,58,0.00,,,0.00,meteohub,2013-09-10 20:34:00,
2013-09-10 16:39:00,89.4,73.8,30.10,SW,229,0.0,4.0,60,0.00,,,0.00,meteohub,2013-09-10 20:39:00,
2013-09-10 16:44:00,89.2,73.6,30.09,SW,216,4.0,4.0,60,0.00,,,0.00,meteohub,2013-09-10 20:44:00,
2013-09-10 16:49:00,88.9,73.8,30.10,WSW,254,0.0,4.0,61,0.00,,,0.00,meteohub,2013-09-10 20:49:00,
2013-09-10 16:54:00,88.7,73.9,30.09,SW,216,0.0,5.0,62,0.00,,,0.00,meteohub,2013-09-10 20:54:00,
2013-09-10 16:59:00,88.3,72.7,30.09,WNW,283,0.0,5.0,60,0.00,,,0.00,meteohub,2013-09-10 20:59:00,
2013-09-10 17:05:00,88.3,73.6,30.09,ESE,120,1.0,4.0,62,0.00,,,0.00,meteohub,2013-09-10 21:05:00,
2013-09-10 17:10:00,88.2,73.0,30.09,SSW,194,0.0,4.0,61,0.00,,,0.00,meteohub,2013-09-10 21:10:00,
2013-09-10 17:15:00,88.2,73.9,30.10,South,177,0.0,4.0,63,0.00,,,0.00,meteohub,2013-09-10 21:15:00,
2013-09-10 17:20:00,88.0,73.4,30.10,WNW,287,0.0,4.0,62,0.00,,,0.00,meteohub,2013-09-10 21:20:00,
2013-09-10 17:25:00,87.8,73.6,30.10,West,273,0.0,4.0,63,0.00,,,0.00,meteohub,2013-09-10 21:25:00,
2013-09-10 17:30:00,87.6,73.4,30.10,West,261,0.0,4.0,63,0.00,,,0.00,meteohub,2013-09-10 21:30:00,
2013-09-10 17:35:00,87.3,73.0,30.10,SSW,203,0.0,2.0,63,0.00,,,0.00,meteohub,2013-09-10 21:35:00,
2013-09-10 17:40:00,87.3,72.7,30.10,SW,218,0.0,5.0,62,0.00,,,0.00,meteohub,2013-09-10 21:40:00,
2013-09-10 17:45:00,87.1,72.9,30.10,SW,235,0.0,5.0,63,0.00,,,0.00,meteohub,2013-09-10 21:45:00,
2013-09-10 17:50:00,87.1,73.9,30.10,SSE,164,1.0,5.0,65,0.00,,,0.00,meteohub,2013-09-10 21:50:00,
2013-09-10 17:55:00,87.1,73.4,30.09,NNW,327,0.0,4.0,64,0.00,,,0.00,meteohub,2013-09-10 21:55:00,
2013-09-10 18:00:00,86.7,73.0,30.10,South,186,0.0,4.0,64,0.00,,,0.00,meteohub,2013-09-10 22:00:00,
2013-09-10 18:05:00,86.7,73.9,30.10,SSW,199,0.0,2.0,66,0.00,,,0.00,meteohub,2013-09-10 22:05:00,
2013-09-10 18:10:00,86.5,73.8,30.10,SW,223,1.0,2.0,66,0.00,,,0.00,meteohub,2013-09-10 22:10:00,
2013-09-10 18:15:00,86.4,73.2,30.10,SSW,200,1.0,2.0,65,0.00,,,0.00,meteohub,2013-09-10 22:15:00,
2013-09-10 18:20:00,86.4,73.6,30.10,WSW,242,2.0,3.0,66,0.00,,,0.00,meteohub,2013-09-10 22:20:00,
2013-09-10 18:25:00,86.2,73.4,30.10,West,272,0.0,3.0,66,0.00,,,0.00,meteohub,2013-09-10 22:25:00,
2013-09-10 18:30:00,86.0,73.8,30.10,NE,34,0.0,3.0,67,0.00,,,0.00,meteohub,2013-09-10 22:30:00,
2013-09-10 18:35:00,85.6,73.4,30.10,NNE,19,0.0,3.0,67,0.00,,,0.00,meteohub,2013-09-10 22:35:00,
2013-09-10 18:40:00,85.5,73.8,30.10,NE,38,0.0,3.0,68,0.00,,,0.00,meteohub,2013-09-10 22:40:00,
2013-09-10 18:45:00,85.3,73.6,30.10,NE,36,0.0,3.0,68,0.00,,,0.00,meteohub,2013-09-10 22:45:00,
2013-09-10 18:50:00,84.9,73.2,30.10,West,273,1.0,3.0,68,0.00,,,0.00,meteohub,2013-09-10 22:50:00,
2013-09-10 18:55:00,84.7,73.4,30.10,WNW,298,3.0,3.0,69,0.00,,,0.00,meteohub,2013-09-10 22:55:00,
2013-09-10 19:00:00,84.6,72.9,30.10,West,273,0.0,3.0,68,0.00,,,0.00,meteohub,2013-09-10 23:00:00,
2013-09-10 19:05:00,84.6,73.2,30.10,West,274,0.0,3.0,69,0.00,,,0.00,meteohub,2013-09-10 23:05:00,
2013-09-10 19:10:00,84.4,73.0,30.10,West,268,0.0,3.0,69,0.00,,,0.00,meteohub,2013-09-10 23:10:00,
2013-09-10 19:15:00,84.2,73.4,30.10,SW,225,0.0,2.0,70,0.00,,,0.00,meteohub,2013-09-10 23:15:00,
2013-09-10 19:20:00,84.0,73.2,30.10,SW,225,0.0,2.0,70,0.00,,,0.00,meteohub,2013-09-10 23:20:00,
2013-09-10 19:25:00,83.8,73.4,30.10,SW,225,0.0,2.0,71,0.00,,,0.00,meteohub,2013-09-10 23:25:00,
2013-09-10 19:30:00,83.7,73.2,30.10,SW,225,0.0,1.0,71,0.00,,,0.00,meteohub,2013-09-10 23:30:00,
2013-09-10 19:35:00,83.5,73.0,30.10,SW,225,0.0,0.0,71,0.00,,,0.00,meteohub,2013-09-10 23:35:00,
2013-09-10 19:40:00,83.1,72.7,30.10,SW,225,0.0,0.0,71,0.00,,,0.00,meteohub,2013-09-10 23:40:00,
2013-09-10 19:45:00,82.9,73.0,30.10,SW,225,0.0,0.0,72,0.00,,,0.00,meteohub,2013-09-10 23:45:00,
2013-09-10 19:50:00,82.6,73.0,30.10,SW,225,0.0,0.0,73,0.00,,,0.00,meteohub,2013-09-10 23:50:00,
2013-09-10 19:56:00,82.4,72.9,30.11,SW,225,0.0,0.0,73,0.00,,,0.00,meteohub,2013-09-10 23:56:00,
2013-09-10 20:01:00,82.0,72.9,30.11,SW,225,0.0,0.0,74,0.00,,,0.00,meteohub,2013-09-11 00:01:00,
2013-09-10 20:06:00,81.9,73.2,30.11,SW,225,0.0,0.0,75,0.00,,,0.00,meteohub,2013-09-11 00:06:00,
2013-09-10 20:11:00,81.5,72.9,30.11,SW,225,0.0,0.0,75,0.00,,,0.00,meteohub,2013-09-11 00:11:00,
2013-09-10 20:16:00,81.3,73.0,30.11,SW,225,0.0,0.0,76,0.00,,,0.00,meteohub,2013-09-11 00:16:00,
2013-09-10 20:21:00,81.0,72.7,30.12,SW,225,0.0,0.0,76,0.00,,,0.00,meteohub,2013-09-11 00:21:00,
2013-09-10 20:26:00,80.8,72.9,30.12,SW,225,0.0,0.0,77,0.00,,,0.00,meteohub,2013-09-11 00:26:00,
2013-09-10 20:31:00,80.4,72.9,30.12,SW,225,0.0,0.0,78,0.00,,,0.00,meteohub,2013-09-11 00:31:00,
2013-09-10 20:36:00,80.2,72.7,30.12,SW,225,0.0,0.0,78,0.00,,,0.00,meteohub,2013-09-11 00:36:00,
2013-09-10 20:41:00,80.1,73.0,30.12,SW,225,0.0,0.0,79,0.00,,,0.00,meteohub,2013-09-11 00:41:00,
2013-09-10 20:46:00,80.1,73.0,30.12,SW,225,0.0,0.0,79,0.00,,,0.00,meteohub,2013-09-11 00:46:00,
2013-09-10 20:51:00,79.9,72.9,30.12,SW,225,0.0,0.0,79,0.00,,,0.00,meteohub,2013-09-11 00:51:00,
2013-09-10 20:56:00,79.5,72.9,30.13,SW,225,0.0,1.0,80,0.00,,,0.00,meteohub,2013-09-11 00:56:00,
2013-09-10 21:01:00,79.3,72.7,30.13,SW,225,0.0,1.0,80,0.00,,,0.00,meteohub,2013-09-11 01:01:00,
2013-09-10 21:06:00,79.3,72.7,30.13,SW,225,0.0,1.0,80,0.00,,,0.00,meteohub,2013-09-11 01:06:00,
2013-09-10 21:11:00,79.2,72.9,30.13,SW,225,0.0,0.0,81,0.00,,,0.00,meteohub,2013-09-11 01:11:00,
2013-09-10 21:16:00,79.0,72.7,30.13,SW,225,0.0,0.0,81,0.00,,,0.00,meteohub,2013-09-11 01:16:00,
2013-09-10 21:21:00,79.0,73.0,30.13,SW,225,0.0,0.0,82,0.00,,,0.00,meteohub,2013-09-11 01:21:00,
2013-09-10 21:26:00,78.8,72.9,30.13,SW,225,0.0,0.0,82,0.00,,,0.00,meteohub,2013-09-11 01:26:00,
2013-09-10 21:31:00,78.6,72.7,30.13,SW,225,0.0,0.0,82,0.00,,,0.00,meteohub,2013-09-11 01:31:00,
2013-09-10 21:36:00,78.6,72.7,30.14,SW,225,0.0,0.0,82,0.00,,,0.00,meteohub,2013-09-11 01:36:00,
2013-09-10 21:41:00,78.4,72.9,30.14,SW,225,0.0,0.0,83,0.00,,,0.00,meteohub,2013-09-11 01:41:00,
2013-09-10 21:46:00,78.4,72.9,30.14,SW,225,0.0,0.0,83,0.00,,,0.00,meteohub,2013-09-11 01:46:00,
2013-09-10 21:51:00,78.3,72.7,30.14,SW,225,0.0,0.0,83,0.00,,,0.00,meteohub,2013-09-11 01:51:00,
2013-09-10 21:56:00,78.1,72.5,30.14,SW,225,0.0,0.0,83,0.00,,,0.00,meteohub,2013-09-11 01:56:00,
2013-09-10 22:01:00,78.1,72.9,30.14,SW,225,0.0,0.0,84,0.00,,,0.00,meteohub,2013-09-11 02:01:00,
2013-09-10 22:06:00,77.9,72.7,30.15,SW,225,0.0,0.0,84,0.00,,,0.00,meteohub,2013-09-11 02:06:00,
2013-09-10 22:12:00,77.7,72.5,30.15,SW,225,0.0,0.0,84,0.00,,,0.00,meteohub,2013-09-11 02:12:00,
2013-09-10 22:17:00,77.7,72.9,30.15,SW,225,0.0,0.0,85,0.00,,,0.00,meteohub,2013-09-11 02:17:00,
2013-09-10 22:22:00,77.7,72.9,30.15,SW,225,0.0,0.0,85,0.00,,,0.00,meteohub,2013-09-11 02:22:00,
2013-09-10 22:27:00,77.5,72.7,30.14,SW,225,0.0,0.0,85,0.00,,,0.00,meteohub,2013-09-11 02:27:00,
2013-09-10 22:32:00,77.5,72.7,30.14,SW,225,0.0,0.0,85,0.00,,,0.00,meteohub,2013-09-11 02:32:00,
2013-09-10 22:37:00,77.5,73.0,30.15,SW,225,0.0,0.0,86,0.00,,,0.00,meteohub,2013-09-11 02:37:00,
2013-09-10 22:42:00,77.4,72.9,30.15,SW,225,0.0,0.0,86,0.00,,,0.00,meteohub,2013-09-11 02:42:00,
2013-09-10 22:47:00,77.4,72.9,30.15,SW,225,0.0,0.0,86,0.00,,,0.00,meteohub,2013-09-11 02:47:00,
2013-09-10 22:52:00,77.2,72.7,30.15,SW,225,0.0,0.0,86,0.00,,,0.00,meteohub,2013-09-11 02:52:00,
2013-09-10 22:57:00,77.2,73.0,30.15,SW,225,0.0,0.0,87,0.00,,,0.00,meteohub,2013-09-11 02:57:00,
2013-09-10 23:02:00,77.2,73.0,30.15,SW,225,0.0,0.0,87,0.00,,,0.00,meteohub,2013-09-11 03:02:00,
2013-09-10 23:07:00,77.2,73.0,30.15,SW,225,0.0,0.0,87,0.00,,,0.00,meteohub,2013-09-11 03:07:00,
2013-09-10 23:12:00,77.0,72.9,30.15,SW,225,0.0,0.0,87,0.00,,,0.00,meteohub,2013-09-11 03:12:00,
2013-09-10 23:17:00,76.8,72.7,30.15,SW,225,0.0,0.0,87,0.00,,,0.00,meteohub,2013-09-11 03:17:00,
2013-09-10 23:22:00,76.8,72.7,30.15,SW,225,0.0,0.0,87,0.00,,,0.00,meteohub,2013-09-11 03:22:00,
2013-09-10 23:27:00,76.8,72.7,30.15,SW,225,0.0,0.0,87,0.00,,,0.00,meteohub,2013-09-11 03:27:00,
2013-09-10 23:32:00,76.8,73.0,30.15,SW,225,0.0,0.0,88,0.00,,,0.00,meteohub,2013-09-11 03:32:00,
2013-09-10 23:37:00,76.6,72.9,30.15,SW,225,0.0,0.0,88,0.00,,,0.00,meteohub,2013-09-11 03:37:00,
2013-09-10 23:42:00,76.6,72.9,30.15,SW,225,0.0,0.0,88,0.00,,,0.00,meteohub,2013-09-11 03:42:00,
2013-09-10 23:47:00,76.6,72.9,30.15,SW,225,0.0,0.0,88,0.00,,,0.00,meteohub,2013-09-11 03:47:00,
2013-09-10 23:52:00,76.6,72.9,30.15,SW,225,0.0,0.0,88,0.00,,,0.00,meteohub,2013-09-11 03:52:00,
2013-09-10 23:57:00,76.5,73.0,30.15,SW,225,0.0,0.0,89,0.00,,,0.00,meteohub,2013-09-11 03:57:00,